Date String (YYYY-MM-DD hh:mm:ss) UTC,Instrument flags,Ambient pressure (hPa),Sample flow (lpm),Bypass flow (lpm),Sample temperature (°C),Ambient temperature (°C),ASC tube jacket temperature (°C),LED temperature (°C),Box temperature (°C),Sample RH (%),Span deviation,Mass concentration (μg/m³),Mass concentration (μg/m³),Mass concentration (μg/m³)
DateTimeUTC,F1_M11,P_M11,Q1_M11,Q2_M11,T1_M11,T2_M11,T3_M11,T4_M11,T5_M11,U1_M11,ZSPAN_M11,X0_M11,X2_M11,X1_M11
2022-02-01 13:00:00,,0822.6,5.01,0.00,21.1,22.6,00.0,30.1,23.0,07.9,0000.0,0008.53,0002.34,0000.70
2022-02-01 13:01:00,,0822.5,5.00,0.00,21.2,22.5,00.0,30.1,23.0,07.9,0000.0,0007.88,0002.34,0000.69
2022-02-01 13:02:00,,0822.5,4.99,0.00,21.2,21.9,00.0,30.1,22.8,08.0,0000.0,0007.76,0002.30,0000.68
2022-02-01 13:03:00,,0822.5,4.99,0.00,21.1,21.4,00.0,30.1,22.6,08.1,0000.0,0007.51,0002.25,0000.66
2022-02-01 13:04:00,,0822.5,5.00,0.00,21.0,21.0,00.0,30.1,22.4,08.1,0000.0,0007.63,0002.30,0000.68
2022-02-01 13:05:00,,0822.5,5.01,0.00,20.9,20.6,00.0,30.0,22.3,08.1,0000.0,0007.53,0002.23,0000.69
2022-02-01 13:06:00,,0822.6,4.99,0.00,20.8,20.3,00.0,30.0,22.2,08.1,0000.0,0007.68,0002.23,0000.69
2022-02-01 13:07:00,,0822.6,5.00,0.00,20.8,20.1,00.0,30.0,22.1,08.2,0000.0,0008.08,0002.26,0000.70
2022-02-01 13:08:00,,0822.6,4.99,0.00,20.8,20.6,00.0,30.0,22.3,08.1,0000.0,0008.30,0002.26,0000.70
2022-02-01 13:09:00,,0822.7,5.02,0.00,21.0,21.7,00.0,30.0,22.7,08.1,0000.0,0008.76,0002.23,0000.70
2022-02-01 13:10:00,,0822.6,4.98,0.00,21.1,22.3,00.0,30.1,23.0,08.0,0000.0,0009.26,0002.26,0000.71
2022-02-01 13:11:00,,0822.6,5.00,0.00,21.2,22.0,00.0,30.1,22.9,08.0,0000.0,0009.35,0002.25,0000.71
2022-02-01 13:12:00,,0822.6,4.99,0.00,21.1,21.5,00.0,30.1,22.7,08.1,0000.0,0009.55,0002.27,0000.73
2022-02-01 13:13:00,,0822.6,5.00,0.00,21.0,21.1,00.0,30.1,22.5,08.2,0000.0,0009.54,0002.27,0000.74
2022-02-01 13:14:00,,0822.6,5.00,0.00,21.0,20.7,00.0,30.1,22.4,08.2,0000.0,0009.75,0002.27,0000.76
2022-02-01 13:15:00,,0822.6,5.00,0.00,20.9,20.5,00.0,30.0,22.3,08.2,0000.0,0010.33,0002.32,0000.75
2022-02-01 13:16:00,,0822.6,5.01,0.00,20.8,20.3,00.0,30.0,22.1,08.2,0000.0,0010.92,0002.43,0000.75
2022-02-01 13:17:00,,0822.7,4.99,0.00,20.8,20.7,00.0,30.0,22.3,08.2,0000.0,0010.89,0002.48,0000.75
2022-02-01 13:18:00,,0822.7,5.02,0.00,21.0,21.8,00.0,30.0,22.7,08.1,0000.0,0010.92,0002.49,0000.76
2022-02-01 13:19:00,,0822.7,4.98,0.00,21.2,22.5,00.0,30.1,23.0,08.0,0000.0,0010.26,0002.39,0000.76
2022-02-01 13:20:00,,0822.7,5.00,0.00,21.3,22.2,00.0,30.1,23.0,07.9,0000.0,0010.44,0002.39,0000.75
2022-02-01 13:21:00,,0822.7,5.01,0.00,21.2,21.8,00.0,30.1,22.9,07.9,0000.0,0010.79,0002.43,0000.75
2022-02-01 13:22:00,,0822.7,5.00,0.00,21.2,21.4,00.0,30.1,22.8,07.9,0000.0,0011.00,0002.41,0000.74
2022-02-01 13:23:00,,0822.7,5.00,0.00,21.1,21.0,00.0,30.1,22.6,07.9,0000.0,0010.93,0002.42,0000.73
2022-02-01 13:24:00,,0822.7,4.99,0.00,21.1,20.7,00.0,30.1,22.5,07.9,0000.0,0011.09,0002.48,0000.74
2022-02-01 13:25:00,,0822.7,5.00,0.00,21.0,20.5,00.0,30.1,22.4,07.9,0000.0,0011.05,0002.53,0000.74
2022-02-01 13:26:00,,0822.7,5.01,0.00,20.9,20.3,00.0,30.1,22.3,08.0,0000.0,0010.62,0002.53,0000.73
2022-02-01 13:27:00,,0822.7,5.01,0.00,20.9,20.2,00.0,30.0,22.3,08.0,0000.0,0010.19,0002.47,0000.73
2022-02-01 13:28:00,,0822.7,4.99,0.00,20.9,21.0,00.0,30.1,22.5,08.0,0000.0,0010.10,0002.43,0000.72
2022-02-01 13:29:00,,0822.7,5.00,0.00,21.1,22.0,00.0,30.1,22.9,07.9,0000.0,0009.65,0002.49,0000.73
2022-02-01 13:30:00,,0822.7,5.00,0.00,21.3,22.4,00.0,30.2,23.1,07.8,0000.0,0009.65,0002.53,0000.73
2022-02-01 13:31:00,,0822.7,4.99,0.00,21.3,21.9,00.0,30.2,23.0,07.8,0000.0,0010.03,0002.57,0000.72
2022-02-01 13:32:00,,0822.7,5.00,0.00,21.2,21.3,00.0,30.2,22.8,07.8,0000.0,0009.24,0002.53,0000.72
2022-02-01 13:33:00,,0822.7,4.99,0.00,21.2,20.9,00.0,30.2,22.7,07.9,0000.0,0009.02,0002.53,0000.73
2022-02-01 13:34:00,,0822.6,5.01,0.00,21.1,20.6,00.0,30.1,22.5,07.9,0000.0,0009.59,0002.59,0000.73
2022-02-01 13:35:00,,0822.6,5.00,0.00,21.0,20.4,00.0,30.1,22.4,07.9,0000.0,0009.70,0002.46,0000.70
2022-02-01 13:36:00,,0822.6,5.00,0.00,20.9,20.2,00.0,30.1,22.3,08.0,0000.0,0010.21,0002.39,0000.69
2022-02-01 13:37:00,,0822.7,4.99,0.00,20.8,20.1,00.0,30.0,22.3,08.0,0000.0,0010.09,0002.31,0000.69
2022-02-01 13:38:00,,0822.7,5.00,0.00,20.9,20.8,00.0,30.1,22.4,08.0,0000.0,0010.10,0002.33,0000.69
2022-02-01 13:39:00,,0822.7,5.00,0.00,21.1,21.8,00.0,30.1,22.8,07.9,0000.0,0010.37,0002.37,0000.70
2022-02-01 13:40:00,,0822.7,5.01,0.00,21.2,22.4,00.0,30.1,23.1,07.8,0000.0,0010.91,0002.32,0000.69
2022-02-01 13:41:00,,0822.7,5.00,0.00,21.3,22.0,00.0,30.2,23.0,07.8,0000.0,0011.12,0002.39,0000.69
2022-02-01 13:42:00,,0822.7,5.01,0.00,21.2,21.6,00.0,30.2,22.9,07.8,0000.0,0010.97,0002.43,0000.70
2022-02-01 13:43:00,,0822.8,4.99,0.00,21.2,21.1,00.0,30.2,22.7,07.9,0000.0,0011.31,0002.46,0000.70
2022-02-01 13:44:00,,0822.7,5.01,0.00,21.1,20.8,00.0,30.1,22.6,07.9,0000.0,0011.33,0002.49,0000.70
2022-02-01 13:45:00,,0822.8,5.01,0.00,21.1,20.6,00.0,30.1,22.5,07.9,0000.0,0011.43,0002.42,0000.70
2022-02-01 13:46:00,,0822.7,5.00,0.00,21.0,20.4,00.0,30.1,22.4,07.9,0000.0,0011.98,0002.44,0000.71
2022-02-01 13:47:00,,0822.7,5.00,0.00,20.9,20.2,00.0,30.1,22.4,07.9,0000.0,0011.91,0002.44,0000.72
2022-02-01 13:48:00,,0822.8,5.01,0.00,21.0,20.8,00.0,30.1,22.5,07.9,0000.0,0011.72,0002.41,0000.72
2022-02-01 13:49:00,,0822.7,5.00,0.00,21.1,21.8,00.0,30.1,22.9,07.9,0000.0,0011.54,0002.34,0000.70
2022-02-01 13:50:00,,0822.6,5.00,0.00,21.3,22.6,00.0,30.2,23.2,07.8,0000.0,0011.51,0002.34,0000.70
2022-02-01 13:51:00,,0822.7,4.98,0.00,21.4,22.3,00.0,30.2,23.2,07.7,0000.0,0010.92,0002.34,0000.70
2022-02-01 13:52:00,,0822.7,5.01,0.00,21.3,21.8,00.0,30.2,23.0,07.7,0000.0,0010.96,0002.28,0000.71
2022-02-01 13:53:00,,0822.7,5.00,0.00,21.3,21.3,00.0,30.2,22.8,07.8,0000.0,0010.66,0002.23,0000.70
2022-02-01 13:54:00,,0822.7,5.00,0.00,21.2,20.9,00.0,30.2,22.7,07.8,0000.0,0010.46,0002.19,0000.70
2022-02-01 13:55:00,,0822.7,4.99,0.00,21.1,20.6,00.0,30.2,22.6,07.8,0000.0,0010.76,0002.19,0000.69
2022-02-01 13:56:00,,0822.7,5.00,0.00,21.0,20.5,00.0,30.2,22.5,07.9,0000.0,0010.27,0002.20,0000.70
2022-02-01 13:57:00,,0822.7,4.99,0.00,21.0,20.3,00.0,30.1,22.4,07.9,0000.0,0009.16,0002.21,0000.70
2022-02-01 13:58:00,,0822.8,5.01,0.00,20.9,20.3,00.0,30.1,22.3,07.9,0000.0,0009.41,0002.31,0000.70
2022-02-01 13:59:00,,0822.7,5.00,0.00,21.0,21.1,00.0,30.1,22.6,07.9,0000.0,0009.78,0002.41,0000.71
